(80186) = 2002 NZ36 = 1999 VD32

Discovered at Socorro on 1999-11-03 by LINEAR.

Orbit

Orbit type: Main Belt

Note: WebGL enabled browser required.

epoch2023-09-13.0
epoch JD2460200.5
perihelion date2020-10-18.80184
perihelion JD2459141.30184
argument of perihelion (°)154.37123
ascending node (°)233.53315
inclination (°)5.56732
eccentricity0.1438920
perihelion distance (AU)1.9806734
Tisserand w.r.t. Jupiter3.6
ΔV w.r.t. Earth (km/sec)8.9
semimajor axis (AU)2.3135788
mean anomaly (°)296.65701
mean daily motion (°/day)0.28007700
aphelion distance (AU)2.646
period (years)3.52
P-vector [x]0.88208904
P-vector [y]0.41379994
P-vector [z]0.22514115
Q-vector [x]-0.46457707
Q-vector [y]0.84328081
Q-vector [z]0.27026954
absolute magnitude16.65
phase slope0.15
uncertainty0
referenceMPEC 2023-X25
observations used745
oppositions18
arc length (days)11328
first opposition used1992
last opposition used2023
residual rms (arc-secs)0.75
perturbers coarse indicatorM-v
perturbers precise indicator003Ek
first observation date used1992-11-27.0
last observation date used2023-12-03.0
computer nameMPCLINUX
JD of orbit computation2456670.908727
perihelion JD uncertainty (days)5.0602E-05
argument of perihelion uncertainty (°)3.7853E-05
ascending node uncertainty (°)3.4001E-05
inclination uncertainty (°)7.2251E-06
eccentricity uncertainty 6.7929E-08
perihelion distance uncertainty (AU)1.5866E-07
Minimum Orbit Intersection Distances (in AU)
for orbit epoch: 2460200.5, reference: E2023-X25
Mercury1.64816
Venus1.26035
Earth0.98654
Mars0.523
Jupiter2.78532
Saturn6.83246
Uranus15.8823
Neptune27.8615

Observations

757 total observations over interval: 1992 11 27.24966 – 2023 12 03.214081
These data are available for download (format description).

Date (UT) J2000 RA J2000 Dec Magn Location Ref
1992 11 27.24966 04 12 04.23 +19 00 50.0 18.5 V 691 – Steward Observatory, Kitt Peak-Spacewatch MPS 59649
1992 11 27.28720 04 12 01.79 +19 00 35.2   691 – Steward Observatory, Kitt Peak-Spacewatch MPS 59649
1992 11 27.32255 04 11 59.49 +19 00 21.3   691 – Steward Observatory, Kitt Peak-Spacewatch MPS 59649
1999 10 22.29817 03 58 34.14 +21 56 17.0 18.8   704 – Lincoln Laboratory ETS, New Mexico MPS 8675
1999 10 22.31119 03 58 33.70 +21 56 12.3 19.4   704 – Lincoln Laboratory ETS, New Mexico MPS 8675
1999 10 22.32575 03 58 33.31 +21 56 09.8 19.5   704 – Lincoln Laboratory ETS, New Mexico MPS 8675
1999 10 22.33846 03 58 32.87 +21 56 05.4 19.0   704 – Lincoln Laboratory ETS, New Mexico MPS 8675
1999 10 22.35118 03 58 32.62 +21 56 02.2 19.1   704 – Lincoln Laboratory ETS, New Mexico MPS 8675
1999 11 03.33776 03 50 44.88 +20 46 26.0 19.1   704 – Lincoln Laboratory ETS, New Mexico MPS 7471
1999 11 03.35387 03 50 43.88 +20 46 19.4 18.8   704 – Lincoln Laboratory ETS, New Mexico MPS 7471
1999 11 03.36992 03 50 43.17 +20 46 13.6 19.2   704 – Lincoln Laboratory ETS, New Mexico MPS 7471
1999 11 03.38599 03 50 42.31 +20 46 06.1 19.1   704 – Lincoln Laboratory ETS, New Mexico MPS 7471
1999 11 09.30331 03 45 28.54 +20 04 51.9 18.6 R 703 – Catalina Sky Survey MPS 8676
1999 11 09.31556 03 45 27.74 +20 04 46.8 19.0 R 703 – Catalina Sky Survey MPS 8676
1999 11 09.32777 03 45 27.08 +20 04 40.6 18.7 R 703 – Catalina Sky Survey MPS 8676
1999 11 09.33994 03 45 26.33 +20 04 36.3 18.5 R 703 – Catalina Sky Survey MPS 8676
1999 11 09.35618 03 45 25.38 +20 04 27.7 18.2   704 – Lincoln Laboratory ETS, New Mexico MPS 8676
1999 11 09.37055 03 45 24.54 +20 04 21.2 18.8   704 – Lincoln Laboratory ETS, New Mexico MPS 8676
1999 11 09.38492 03 45 23.66 +20 04 14.7 18.9   704 – Lincoln Laboratory ETS, New Mexico MPS 8676
1999 11 09.39982 03 45 22.78 +20 04 08.4 18.7   704 – Lincoln Laboratory ETS, New Mexico MPS 8676
1999 11 09.41418 03 45 21.92 +20 04 01.8 19.1   704 – Lincoln Laboratory ETS, New Mexico MPS 8676
1999 11 12.29694 03 42 37.09 +19 42 45.0 19.0   704 – Lincoln Laboratory ETS, New Mexico MPS 7471
1999 11 12.31144 03 42 36.22 +19 42 38.8 19.0   704 – Lincoln Laboratory ETS, New Mexico MPS 7471
1999 11 12.32574 03 42 35.34 +19 42 31.4 19.1   704 – Lincoln Laboratory ETS, New Mexico MPS 7471
1999 11 12.34004 03 42 34.42 +19 42 25.5 19.0   704 – Lincoln Laboratory ETS, New Mexico MPS 7471
1999 11 12.35435 03 42 33.54 +19 42 18.9 19.0   704 – Lincoln Laboratory ETS, New Mexico MPS 7471
1999 11 17.19797 03 37 48.10 +19 05 34.0 18.5   704 – Lincoln Laboratory ETS, New Mexico MPS 8676
1999 11 17.24472 03 37 45.13 +19 05 13.9 18.8   704 – Lincoln Laboratory ETS, New Mexico MPS 8676
1999 11 17.26028 03 37 44.13 +19 05 06.5 18.9   704 – Lincoln Laboratory ETS, New Mexico MPS 8676
1999 11 17.42953 03 37 33.62 +19 03 48.4 18.5 V 691 – Steward Observatory, Kitt Peak-Spacewatch MPS 8676
1999 11 17.45177 03 37 32.26 +19 03 37.9 18.5 V 691 – Steward Observatory, Kitt Peak-Spacewatch MPS 8676
1999 11 17.47441 03 37 30.87 +19 03 27.3 18.5 V 691 – Steward Observatory, Kitt Peak-Spacewatch MPS 8676
1999 11 19.17090 03 35 51.14 +18 50 27.6 18.7 R 699 – Lowell Observatory-LONEOS MPS 8676
1999 11 19.20144 03 35 49.31 +18 50 13.9   699 – Lowell Observatory-LONEOS MPS 8676
1999 11 19.23199 03 35 47.31 +18 49 59.6   699 – Lowell Observatory-LONEOS MPS 8676
1999 12 06.23319 03 20 54.85 +16 48 11.1 18.0   704 – Lincoln Laboratory ETS, New Mexico MPS 7872
1999 12 06.24757 03 20 54.26 +16 48 05.6 18.7   704 – Lincoln Laboratory ETS, New Mexico MPS 7872
1999 12 06.27639 03 20 52.90 +16 47 54.5 18.2   704 – Lincoln Laboratory ETS, New Mexico MPS 7872
1999 12 07.21989 03 20 14.54 +16 42 05.3 18.7   704 – Lincoln Laboratory ETS, New Mexico MPS 7872
1999 12 07.23447 03 20 13.96 +16 41 59.8 18.8   704 – Lincoln Laboratory ETS, New Mexico MPS 7872
1999 12 07.24900 03 20 13.36 +16 41 55.1 19.0   704 – Lincoln Laboratory ETS, New Mexico MPS 7872
1999 12 07.26359 03 20 12.72 +16 41 49.5 18.9   704 – Lincoln Laboratory ETS, New Mexico MPS 7872
1999 12 07.27814 03 20 12.05 +16 41 43.4 18.9   704 – Lincoln Laboratory ETS, New Mexico MPS 7872
1999 12 12.29471 03 17 15.07 +16 13 20.2 18.9 R 703 – Catalina Sky Survey MPS 7872
1999 12 12.30681 03 17 14.68 +16 13 17.7 18.5 R 703 – Catalina Sky Survey MPS 7872
1999 12 12.31899 03 17 14.29 +16 13 13.0 18.5 R 703 – Catalina Sky Survey MPS 7872
1999 12 12.33115 03 17 13.86 +16 13 08.4 18.4 R 703 – Catalina Sky Survey MPS 7872
1999 12 17.21277 03 15 10.07 +15 50 00.0 19.7 V 691 – Steward Observatory, Kitt Peak-Spacewatch MPS 8676
1999 12 17.23481 03 15 09.56 +15 49 54.4 19.7 V 691 – Steward Observatory, Kitt Peak-Spacewatch MPS 8676
1999 12 17.26069 03 15 08.95 +15 49 47.8 19.7 V 691 – Steward Observatory, Kitt Peak-Spacewatch MPS 8676
2002 07 09.32826 20 58 23.45 -07 47 48.5 20.1   704 – Lincoln Laboratory ETS, New Mexico MPS 59092
2002 07 09.34143 20 58 22.89 -07 47 46.5 20.2   704 – Lincoln Laboratory ETS, New Mexico MPS 59092
2002 07 09.35461 20 58 22.33 -07 47 47.4 20.2   704 – Lincoln Laboratory ETS, New Mexico MPS 59092
2002 07 09.36779 20 58 21.81 -07 47 45.9 20.3   704 – Lincoln Laboratory ETS, New Mexico MPS 59092
2002 07 12.29350 20 56 23.46 -07 45 41.2 19.8   644 – Palomar Mountain/NEAT MPS 59092
2002 07 12.31817 20 56 22.36 -07 45 40.5 19.6   644 – Palomar Mountain/NEAT MPS 59092
2002 07 12.34817 20 56 21.02 -07 45 39.8 19.3   644 – Palomar Mountain/NEAT MPS 59092
2002 07 21.30072 20 49 07.19 -07 48 21.1 18.9   644 – Palomar Mountain/NEAT MPS 59092
2002 07 21.32187 20 49 05.98 -07 48 22.7 18.9   644 – Palomar Mountain/NEAT MPS 59092
2002 07 21.34306 20 49 04.83 -07 48 24.1 19.3   644 – Palomar Mountain/NEAT MPS 59092
2002 08 06.25122 20 33 45.08 -08 23 31.0 18.6   644 – Palomar Mountain/NEAT MPS 60031
2002 08 06.32419 20 33 40.59 -08 23 45.1 18.5   644 – Palomar Mountain/NEAT MPS 60031
2002 08 06.38930 20 33 36.61 -08 23 57.4 18.6   644 – Palomar Mountain/NEAT MPS 60031
2002 08 16.16690 20 24 31.01 -08 59 41.5 20.1   644 – Palomar Mountain/NEAT MPS 60852
2002 08 16.18931 20 24 29.83 -08 59 47.5 20.3   644 – Palomar Mountain/NEAT MPS 60852
2002 08 16.21034 20 24 28.69 -08 59 52.4 20.3   644 – Palomar Mountain/NEAT MPS 60852
2004 01 23.39663 09 16 57.52 +06 10 04.0 19.6   704 – Lincoln Laboratory ETS, New Mexico MPS 97577
2004 01 23.40958 09 16 56.77 +06 10 05.2 19.9   704 – Lincoln Laboratory ETS, New Mexico MPS 97577
2004 01 23.42258 09 16 56.02 +06 10 08.4 19.3   704 – Lincoln Laboratory ETS, New Mexico MPS 97577
2004 01 23.43540 09 16 55.24 +06 10 11.0 19.8   704 – Lincoln Laboratory ETS, New Mexico MPS 97577
2004 01 23.44818 09 16 54.43 +06 10 12.0 19.9   704 – Lincoln Laboratory ETS, New Mexico MPS 97577
2004 01 29.27559 09 11 04.01 +06 29 04.6 19.3   704 – Lincoln Laboratory ETS, New Mexico MPS 97577
2004 01 29.30080 09 11 02.36 +06 29 10.5 19.5   704 – Lincoln Laboratory ETS, New Mexico MPS 97577
2004 01 29.31329 09 11 01.61 +06 29 13.2 19.7   704 – Lincoln Laboratory ETS, New Mexico MPS 97577
2004 01 29.32574 09 11 00.82 +06 29 15.9 19.7   704 – Lincoln Laboratory ETS, New Mexico MPS 97577
2004 02 11.28825 08 57 39.27 +07 26 02.2 19.3   644 – Palomar Mountain/NEAT MPS 98577
2004 02 11.30888 08 57 37.98 +07 26 08.1 19.3   644 – Palomar Mountain/NEAT MPS 98577
2004 02 11.34326 08 57 35.87 +07 26 18.3 19.2   644 – Palomar Mountain/NEAT MPS 98577
2005 05 04.38809 16 19 05.29 -20 45 44.6 17.2 R G96 – Mt. Lemmon Survey MPS 133785
2005 05 04.39341 16 19 05.02 -20 45 42.9 19.6 R G96 – Mt. Lemmon Survey MPS 133785
2005 05 04.39877 16 19 04.72 -20 45 41.4 19.5 R G96 – Mt. Lemmon Survey MPS 133785
2005 05 04.40411 16 19 04.48 -20 45 39.7 19.9 R G96 – Mt. Lemmon Survey MPS 133785
2005 06 06.21784 15 47 05.31 -18 04 46.3 20.6 V 691 – Steward Observatory, Kitt Peak-Spacewatch MPS 136401
2005 06 06.23538 15 47 04.33 -18 04 41.5 20.9 V 691 – Steward Observatory, Kitt Peak-Spacewatch MPS 136401
2005 06 06.25286 15 47 03.31 -18 04 36.4 20.5 V 691 – Steward Observatory, Kitt Peak-Spacewatch MPS 136401
2005 06 10.24121 15 43 30.09 -17 45 39.5 20.3 V 691 – Steward Observatory, Kitt Peak-Spacewatch MPS 136401
